Вернуться в каталог

STARLINK-4760

АктивенСвязьVLEO
NORAD 53828·PAYLOAD·🇺🇸 United States

Запущен Sep 19, 2022 с Cape Canaveral Space Force Station

Loading…

Ближайшие Пролёты (ближайшие 24 часа)

TLE

СвежийSource: CelesTrak SupGP

Эпоха: Sep 14, 2026, 20:53 UTC

1 53828C 22114L   26257.87062500 -.00021804  00000+0 -62361-3 0  2570
2 53828  53.1587 166.7369 0001257 101.0353  61.5097 15.35420581    16

Отслеживайте STARLINK-4760 в реальном времени с AllMySat

Download on the App Store